Theta_e
326 327 326 326 325 324 326 324 322 323 325 328 324 323 324 320 329 342 344 344 348 348 348 349 349 351 352 352 352 351 352 353 353 353 353 353 353 354 354 352 350 350 348 347 349 347 347 348 349 350 350 351 353 353 353 350 344 343 344 343 342 340 338
326 327 326 326 325 325 325 320 322 327 328 330 327 325 325 321 329 343 345 344 346 346 347 351 349 349 350 348 349 349 350 349 349 350 351 351 353 355 356 354 351 350 348 348 349 348 347 348 348 349 349 351 354 355 356 354 349 346 344 342 342 342 341
326 328 325 325 325 326 325 322 325 327 323 327 328 325 324 321 327 342 345 342 344 345 346 347 346 346 346 345 344 345 346 345 346 347 347 349 352 353 355 355 353 350 348 348 349 348 348 348 347 349 349 350 352 354 355 355 354 352 350 348 344 342 342
325 327 324 322 323 325 325 323 326 326 322 324 327 325 325 322 326 338 343 343 346 346 344 345 345 344 345 346 345 344 344 343 344 346 346 349 351 352 354 355 354 351 349 348 348 348 349 349 348 348 349 350 351 352 352 352 353 353 353 355 353 350 347
324 323 324 325 325 324 323 323 323 324 323 326 329 327 323 324 326 331 340 344 346 348 346 346 346 344 344 347 347 345 345 345 345 347 348 350 351 351 352 353 353 351 350 349 347 346 349 351 350 347 348 350 349 349 351 353 354 351 347 350 354 354 353
320 322 326 326 327 327 325 325 324 324 325 325 328 329 326 325 325 325 335 343 347 348 347 346 347 345 344 346 346 345 346 346 347 348 348 349 349 350 351 351 351 351 350 349 347 346 347 351 352 348 346 348 348 348 350 352 354 353 348 348 350 352 354
321 324 327 326 326 328 326 327 326 325 327 326 324 326 326 326 325 325 334 343 348 347 345 345 346 344 344 345 345 345 346 346 347 348 348 348 348 349 350 351 350 350 349 349 348 348 347 349 352 351 348 348 347 348 348 349 351 353 352 352 351 351 352
326 325 327 325 326 326 325 327 327 324 325 327 327 327 328 328 327 326 334 343 347 346 345 345 344 344 346 346 346 346 346 346 347 348 348 348 347 348 349 349 350 350 349 348 348 350 350 349 351 353 351 349 347 348 348 347 349 350 350 351 351 351 352
327 329 330 329 330 329 325 325 326 325 326 328 329 330 333 334 328 326 335 342 346 347 347 346 345 345 346 345 346 346 345 345 346 346 346 346 346 348 349 349 350 350 349 348 348 349 351 350 351 353 353 350 348 348 350 349 347 347 349 350 351 351 350
324 327 329 329 330 330 327 325 326 326 326 328 331 334 336 335 331 333 339 342 345 349 348 347 346 347 346 345 346 345 345 345 344 344 344 343 344 345 347 348 349 349 349 349 349 349 349 349 350 351 352 352 350 349 349 350 348 347 349 350 349 348 348
324 327 330 332 329 326 324 325 325 326 325 328 333 335 336 335 333 338 342 343 344 348 347 347 348 348 346 346 345 345 345 344 343 343 342 342 343 343 344 345 346 348 348 348 349 349 348 348 347 348 348 349 350 350 350 352 351 350 349 351 350 347 346
324 327 327 327 326 323 323 322 322 323 323 325 330 329 333 338 337 337 343 344 343 345 347 347 348 347 346 345 344 344 343 342 342 342 341 341 342 342 343 344 344 346 347 347 347 348 348 348 347 347 345 344 346 349 351 353 353 353 353 354 354 350 348
322 323 324 324 325 323 323 321 320 321 320 322 326 324 330 343 342 341 346 346 344 345 347 346 346 346 344 344 344 343 342 341 340 340 340 340 340 341 342 343 344 345 345 345 346 345 347 347 348 348 346 344 343 345 346 346 347 350 353 354 355 355 354
323 324 325 326 325 323 323 323 322 322 322 323 323 323 332 343 344 344 347 348 348 347 345 345 345 343 343 343 343 342 341 340 339 338 339 339 339 340 341 341 343 344 344 344 344 344 345 346 347 348 347 348 347 345 343 342 341 346 350 351 351 352 354
322 323 324 325 325 323 322 323 324 323 322 322 322 325 335 342 344 345 346 348 349 347 343 344 343 342 342 342 341 341 340 339 338 337 338 339 339 339 340 340 341 341 342 343 343 343 344 344 346 347 347 348 349 347 346 343 342 345 348 350 349 349 352
322 322 322 322 323 322 321 322 325 325 322 322 326 331 335 339 343 346 346 346 347 346 342 343 342 341 341 341 340 340 339 338 338 337 337 338 339 339 339 339 339 339 341 342 341 342 343 343 345 346 347 347 348 349 348 346 345 344 345 347 349 349 349
322 321 321 321 321 321 321 324 327 328 326 326 330 335 335 335 339 343 345 345 347 345 342 343 343 341 340 340 340 339 338 337 337 336 335 336 336 338 338 338 339 340 340 341 341 342 343 344 344 345 347 347 347 349 349 348 347 345 343 345 346 345 345
321 322 322 323 323 321 324 330 330 328 329 329 330 333 334 334 336 340 343 345 345 344 342 342 342 341 339 339 339 338 337 337 336 335 335 335 335 336 337 338 339 339 340 341 342 342 344 344 344 345 346 347 347 348 348 348 348 347 346 346 346 346 345
322 323 322 322 323 326 331 334 332 330 330 327 329 333 334 334 336 339 342 342 342 342 341 340 340 340 339 339 338 338 337 337 336 335 334 334 335 335 335 337 338 339 339 340 341 342 342 343 344 344 345 345 345 345 346 347 347 347 347 347 347 348 348
323 322 321 322 325 330 334 332 330 331 329 325 330 336 337 336 337 339 340 341 341 341 340 340 339 339 339 338 338 338 337 337 336 334 332 332 333 334 335 335 336 337 338 339 340 340 340 340 341 342 342 343 343 343 344 345 345 345 346 346 346 346 346
323 321 321 324 325 330 336 334 329 331 330 330 336 339 339 337 337 338 339 340 340 340 339 339 339 338 338 338 337 337 336 336 335 333 331 331 332 334 334 334 334 335 336 337 338 339 339 338 337 337 339 340 340 340 341 342 343 343 343 344 344 344 344
325 323 322 322 320 326 338 337 329 329 330 330 335 339 340 339 337 337 338 338 339 338 338 339 339 338 338 339 338 337 335 334 333 330 329 329 330 332 333 333 333 333 334 334 335 336 337 336 335 334 334 335 336 336 337 339 340 340 341 341 342 343 343
323 321 321 320 320 329 343 340 329 326 328 328 331 337 341 341 336 337 338 337 337 338 338 338 338 339 342 341 338 337 335 333 330 327 326 326 327 328 330 331 333 333 333 333 333 333 334 334 333 333 331 331 331 331 331 335 336 335 336 338 339 339 339
323 321 320 320 324 337 346 339 330 327 328 329 329 332 338 340 335 337 339 337 337 338 338 338 338 340 342 341 337 336 335 334 331 328 325 324 324 326 327 328 331 332 331 331 332 333 333 332 332 332 331 330 329 326 324 327 329 327 327 330 333 334 335
323 322 320 319 326 339 342 333 329 326 327 331 331 331 338 338 334 336 338 337 338 338 337 338 338 337 337 336 336 336 335 333 331 329 326 324 323 324 325 327 330 331 330 331 332 332 332 332 331 331 330 330 328 325 322 322 322 321 319 321 323 324 327
323 323 321 319 326 335 332 327 327 325 331 338 336 335 336 334 333 336 336 337 338 338 337 337 336 334 334 335 336 336 334 331 329 328 326 324 322 322 323 325 328 329 330 331 331 331 332 332 330 329 328 328 327 325 324 324 325 324 322 321 320 319 320
323 323 320 319 327 333 330 330 334 333 336 340 337 334 334 334 334 335 335 335 335 335 336 337 335 335 336 336 335 334 332 330 328 325 323 321 321 322 322 323 325 327 329 330 330 330 330 328 325 322 320 321 322 322 324 326 326 325 325 324 324 323 321
325 324 323 324 330 333 329 333 338 336 334 335 334 333 334 334 334 334 334 334 333 334 336 337 335 336 336 335 334 332 329 328 325 323 322 321 321 322 321 322 322 323 324 323 323 323 322 322 324 324 322 320 319 321 323 324 323 325 326 325 324 323 322
333 332 333 331 329 330 329 330 333 333 332 332 332 332 333 334 333 333 333 334 334 336 337 336 336 337 336 334 333 330 328 327 326 325 324 323 322 321 321 321 321 321 321 320 319 319 319 321 326 329 328 326 325 325 326 325 324 325 327 326 324 323 320
335 333 334 331 328 329 330 329 330 331 330 329 329 331 333 333 333 332 332 333 335 336 336 336 337 336 335 334 333 331 330 329 327 327 326 323 322 321 321 321 322 321 323 324 324 324 324 323 325 329 330 329 329 329 329 329 328 327 327 327 326 324 322
333 334 336 334 329 328 330 329 329 329 328 328 329 332 333 332 332 332 331 331 333 334 335 336 336 336 335 334 332 330 329 328 327 326 326 324 323 323 323 323 323 322 323 324 325 325 326 324 322 323 326 328 329 329 329 329 329 329 329 329 328 327 325
333 338 338 332 325 327 330 330 328 328 329 330 331 331 332 331 332 333 331 330 332 333 334 335 336 335 334 333 331 329 327 326 326 325 325 325 326 327 327 327 326 324 322 322 322 323 323 321 318 315 315 317 321 323 325 327 328 327 327 327 329 328 325
334 338 336 329 328 331 330 328 328 328 329 331 331 331 332 332 333 333 331 331 331 331 333 335 335 335 334 331 329 327 326 325 325 325 326 327 328 328 329 329 328 325 322 321 321 320 318 318 317 314 312 312 313 316 322 327 328 326 324 324 326 327 326
333 337 335 332 334 336 331 328 329 329 329 331 332 331 331 331 332 333 332 331 330 331 333 335 334 334 333 331 328 327 326 326 326 328 328 328 329 329 329 328 328 327 324 321 320 319 318 317 316 315 314 314 313 316 323 328 328 327 325 323 323 325 326
331 333 332 330 332 334 332 329 330 330 330 331 331 331 331 330 329 331 333 332 331 332 333 334 334 333 332 330 328 327 327 326 327 329 329 328 328 329 329 328 329 329 327 324 323 324 323 321 320 318 317 316 315 315 320 325 326 325 324 321 319 320 322
329 329 329 327 327 329 329 330 330 331 330 331 330 330 331 330 328 329 332 332 332 332 333 334 334 333 331 330 328 328 327 327 328 329 329 329 329 329 329 329 329 329 329 329 328 328 328 327 325 324 322 321 319 315 314 316 319 319 319 318 317 317 318
329 329 328 327 327 328 329 330 330 330 330 330 330 330 330 329 328 329 331 331 331 332 333 333 333 332 330 329 328 328 329 329 329 329 330 330 329 329 330 330 329 329 329 329 328 328 328 328 327 324 323 324 324 319 313 310 310 313 316 319 321 322 322
Wind_Speed
7 2 3 2 4 2 2 3 2 4 6 1 2 2 4 1 4 4 3 3 3 1 2 3 2 2 4 4 5 5 4 3 2 3 3 4 7 9 12 17 20 17 13 7 3 9 18 23 25 27 27 26 25 24 22 19 17 20 21 19 18 19 20
3 4 3 5 4 3 2 2 4 5 6 4 3 1 3 2 5 3 3 4 2 1 2 4 5 6 5 6 8 9 11 12 11 9 7 5 2 2 4 9 17 18 14 8 0 4 12 18 20 23 24 24 26 25 22 20 18 18 19 19 18 18 19
3 3 1 3 5 4 3 4 5 3 3 3 2 1 1 2 4 3 2 3 2 2 1 2 5 8 8 10 10 11 15 16 15 14 12 9 7 3 2 2 8 16 17 13 4 3 4 9 17 22 22 23 26 26 22 19 19 19 18 17 17 18 18
5 4 2 1 4 5 5 5 5 3 2 0 1 1 2 2 2 3 4 2 1 1 2 3 4 5 6 7 7 6 7 8 7 7 8 6 6 4 1 1 5 12 18 18 10 1 4 3 12 21 21 22 25 24 21 19 19 19 18 17 17 17 17
2 1 2 2 0 1 3 3 2 2 2 4 3 2 1 2 1 3 4 2 1 2 3 3 2 4 2 2 4 5 4 1 2 3 4 4 6 5 2 1 4 9 16 21 18 8 4 5 6 16 18 16 19 19 18 19 19 19 18 17 17 17 16
4 4 2 1 5 4 1 1 2 3 3 4 3 3 3 3 2 2 4 4 2 2 1 2 2 2 2 1 0 4 5 1 2 4 4 5 7 6 2 2 1 4 10 17 19 15 8 5 6 11 13 10 14 18 18 18 18 18 18 16 17 16 16
4 9 6 4 7 6 5 4 3 3 3 4 4 1 3 3 4 3 5 5 2 3 2 1 1 2 2 1 2 6 7 5 5 6 6 7 8 5 1 2 1 3 6 10 13 13 11 8 7 10 10 10 15 18 18 19 18 17 17 16 16 16 16
4 10 6 4 5 4 4 2 3 3 1 3 4 3 1 2 3 3 5 3 2 3 4 6 5 3 4 2 5 8 11 8 8 9 9 10 10 6 3 4 4 2 4 7 9 7 9 11 9 10 12 13 14 13 14 16 16 15 16 17 17 15 15
4 6 5 3 4 3 1 2 3 5 5 4 4 3 3 4 4 4 5 1 2 3 4 7 8 6 5 4 6 10 13 11 10 11 12 13 13 10 6 6 7 6 3 2 4 6 9 11 11 10 10 12 13 12 10 10 12 14 16 17 16 15 15
2 2 2 3 2 3 2 1 6 6 1 4 5 4 4 2 3 5 4 3 2 4 4 4 5 5 6 5 4 10 14 13 12 12 13 12 12 12 10 10 12 11 8 6 5 1 3 6 9 9 8 9 11 12 10 8 11 15 16 16 16 16 16
3 4 6 6 6 5 3 4 7 7 7 6 4 5 3 3 2 4 3 7 7 6 6 5 4 4 5 5 5 10 14 15 13 12 12 12 13 12 10 12 14 13 11 9 8 6 4 2 5 8 7 6 9 11 11 9 11 15 15 14 14 16 17
5 7 8 7 7 6 5 6 7 7 7 7 4 4 2 4 6 3 1 7 9 7 6 6 5 4 4 6 7 10 14 16 14 10 9 11 13 13 11 11 12 12 13 11 9 7 6 4 2 6 9 7 5 8 9 7 8 11 12 12 13 16 17
9 9 8 9 9 6 4 5 6 6 6 6 4 3 4 6 7 3 3 7 8 6 7 6 5 6 8 9 10 11 14 16 13 9 9 10 12 13 12 12 11 11 11 10 9 7 5 4 4 2 4 9 10 11 11 9 7 7 8 10 12 15 15
9 9 11 14 12 6 4 4 5 5 5 6 5 2 7 11 10 7 8 10 6 4 7 8 7 11 14 13 11 11 13 14 12 10 10 10 11 11 11 12 11 11 10 8 7 7 5 4 4 5 3 3 6 10 16 17 14 10 8 8 10 13 14
5 9 11 9 6 4 4 5 5 3 2 4 5 2 9 12 9 7 10 10 5 4 9 12 12 13 13 12 10 10 11 12 12 11 11 10 10 10 10 9 9 9 9 7 6 6 6 5 3 4 4 3 3 6 11 15 16 14 11 9 10 12 14
4 7 8 6 4 4 4 3 3 4 5 5 1 3 4 7 8 7 8 7 4 4 9 13 13 12 12 11 10 10 11 11 11 10 9 10 10 10 9 9 8 9 10 9 8 7 7 6 5 4 3 3 4 4 5 8 12 14 14 12 12 12 12
4 6 10 11 7 3 2 1 4 7 3 3 7 6 6 8 7 5 5 4 5 7 9 9 9 10 11 10 10 11 12 12 12 10 8 9 10 10 11 11 9 10 11 10 8 8 7 5 4 4 3 4 5 4 4 6 8 11 13 13 13 14 14
4 7 12 12 3 3 2 3 4 7 6 6 7 8 10 11 9 7 7 7 6 8 9 8 8 10 11 11 11 11 12 12 12 11 8 8 8 10 11 11 10 10 10 8 7 9 8 6 5 5 5 6 6 6 5 6 7 9 11 11 11 11 13
3 4 6 7 3 3 5 2 5 7 7 8 9 8 9 11 14 13 11 9 8 10 13 14 16 15 14 14 13 11 10 11 11 11 9 7 8 10 11 11 11 10 9 9 9 10 11 10 8 8 8 8 8 8 7 6 7 7 7 8 7 6 7
2 2 1 1 3 2 3 4 5 5 6 7 8 8 8 8 13 13 10 10 11 15 18 19 19 19 17 14 12 10 10 11 10 10 9 7 7 9 10 11 12 11 9 10 10 11 12 11 10 9 7 7 8 9 8 7 7 6 5 4 3 1 0
1 0 2 3 1 2 3 3 3 4 6 7 7 6 5 6 11 14 11 10 13 16 18 20 20 20 16 11 7 8 9 10 10 9 9 8 7 8 9 10 11 12 10 9 9 10 11 12 13 11 8 6 8 11 12 12 12 10 9 8 7 6 6
1 3 3 4 2 1 2 3 1 5 9 12 12 8 2 4 12 19 14 10 14 16 17 20 21 17 10 5 5 8 8 8 9 9 9 8 7 8 8 9 11 14 14 13 12 11 10 12 14 14 13 12 13 14 16 16 15 13 13 13 12 11 11
2 3 1 3 3 2 4 5 2 8 11 12 13 8 1 1 12 22 18 13 15 17 18 20 18 11 4 2 7 11 11 9 10 11 10 8 7 8 8 8 10 13 14 15 16 13 11 11 13 13 14 15 16 17 18 17 16 16 17 16 15 14 13
2 2 1 3 2 3 5 6 3 10 11 9 9 4 4 3 13 21 20 17 16 18 21 20 12 5 3 7 12 15 13 11 10 10 10 10 9 9 7 7 11 13 14 15 15 11 9 11 14 15 15 16 18 19 20 19 19 19 19 17 16 15 13
4 4 3 3 2 2 2 3 4 10 10 7 4 3 6 8 15 19 19 18 16 17 19 16 8 4 5 12 18 17 14 12 11 10 9 9 9 9 6 6 9 12 14 16 14 10 8 10 12 14 14 16 17 18 20 21 21 20 20 19 16 15 13
2 3 3 2 1 2 2 7 11 9 6 2 2 7 12 17 18 16 17 17 16 16 16 12 10 11 13 18 21 17 15 16 14 11 9 9 9 8 6 6 8 10 13 16 14 10 9 10 10 11 11 12 14 16 18 20 19 18 18 18 17 16 15
1 2 3 1 2 3 1 4 7 7 2 6 10 14 19 20 19 17 17 17 16 17 16 13 14 16 19 20 20 17 16 16 14 12 11 10 10 9 8 8 7 7 10 12 10 6 5 9 12 13 13 13 13 15 16 17 16 16 15 15 16 16 15
1 1 2 3 4 1 5 7 4 4 8 14 19 20 19 20 20 18 17 16 16 18 18 18 19 20 21 21 19 17 17 16 14 13 12 11 10 10 10 10 6 5 6 8 7 5 6 11 16 17 16 16 16 17 16 16 16 16 16 14 14 15 14
2 3 3 6 5 4 14 15 12 14 16 16 16 19 21 22 21 18 17 17 17 18 19 21 22 22 21 21 20 19 18 18 16 15 13 12 12 12 13 11 9 7 9 10 11 11 10 11 14 15 15 15 16 16 15 15 15 16 15 14 14 14 15
2 3 4 6 4 10 18 16 12 14 15 11 10 15 22 23 19 17 17 18 17 18 20 22 23 21 21 21 21 20 19 18 16 14 13 13 13 13 13 13 12 12 12 13 14 15 13 11 11 13 13 13 13 12 10 11 13 14 14 14 15 15 16
3 0 4 5 5 10 17 16 11 10 11 9 10 15 19 20 17 16 16 17 16 17 20 21 22 22 21 20 19 20 19 18 15 14 13 13 13 13 13 13 12 13 13 13 14 14 12 11 10 11 11 10 10 9 8 10 11 11 12 12 13 15 16
3 4 6 5 5 10 18 18 10 8 10 12 15 16 17 18 17 15 15 16 17 19 20 20 22 23 21 19 18 19 19 17 15 15 15 15 14 14 13 12 10 10 11 12 12 11 11 10 9 10 9 8 7 7 10 12 12 10 10 9 9 11 13
2 2 5 5 4 9 17 16 9 8 12 16 17 16 16 17 18 17 16 15 16 20 20 19 21 23 20 19 19 20 19 18 17 17 18 17 16 15 14 11 9 8 10 11 11 10 10 9 8 9 10 10 9 8 9 11 11 9 8 7 7 9 10
0 2 6 7 5 6 11 13 12 12 15 16 16 15 14 15 16 18 18 17 17 21 21 19 21 22 20 20 22 22 21 21 20 19 19 18 16 14 13 11 10 10 11 12 12 12 12 11 10 10 10 10 9 9 9 10 10 9 7 6 7 9 8
1 3 8 11 8 6 9 14 16 16 15 14 15 14 14 15 14 15 20 22 20 20 20 20 21 22 22 22 23 23 22 22 20 18 17 16 15 14 13 13 13 12 12 12 12 12 12 11 10 10 9 9 9 8 8 9 8 7 5 5 7 7 6
2 3 9 10 6 5 11 16 18 17 14 13 12 12 15 16 12 13 20 23 20 19 21 21 21 22 22 22 21 21 21 20 19 17 16 15 14 13 13 13 13 13 13 13 12 11 11 10 9 8 8 7 7 7 7 6 5 5 4 6 8 8 6
2 6 11 10 6 10 16 18 17 15 13 11 11 13 16 15 12 13 19 21 19 20 22 22 21 21 22 21 21 22 21 19 18 18 17 15 14 13 13 13 13 13 14 13 12 11 10 9 8 9 9 7 5 6 6 5 5 6 7 8 9 9 9
Wind_Direction
185 74 33 310 295 303 315 349 22 284 286 355 97 333 333 6 83 45 10 71 93 81 25 14 19 74 85 96 96 69 24 10 84 151 171 183 202 220 233 229 226 233 239 230 152 172 194 201 200 198 200 203 205 210 213 213 206 203 207 209 206 205 205
112 70 343 287 299 350 15 328 308 306 329 23 77 28 330 27 83 52 16 62 71 336 18 347 356 24 33 35 39 34 23 13 15 31 41 35 20 261 257 237 227 230 236 244 324 133 182 195 198 199 200 199 199 203 206 206 205 205 209 212 209 207 207
167 160 327 291 270 254 203 248 283 316 356 348 12 57 355 63 92 96 80 73 12 357 336 325 12 22 19 31 33 25 20 9 3 15 23 21 19 0 329 282 226 221 226 236 257 64 142 187 192 194 202 207 205 205 206 207 207 206 209 215 215 213 211
156 157 67 351 266 244 201 230 271 248 195 327 337 157 141 102 114 126 121 118 351 331 276 310 27 33 24 50 63 57 34 2 353 21 22 18 27 37 58 293 237 220 219 221 223 143 86 148 186 187 198 209 210 211 213 214 213 207 208 214 216 215 215
96 150 211 199 19 39 193 221 285 306 19 42 14 338 28 43 99 120 118 123 286 246 253 302 32 68 57 99 118 123 125 293 326 38 23 12 16 24 52 298 248 235 226 218 216 213 119 82 161 183 190 201 208 212 213 213 213 208 209 216 217 214 212
352 326 309 30 21 23 50 32 30 27 56 79 46 343 338 16 69 108 123 129 262 256 200 302 330 71 86 238 114 107 108 57 6 31 31 31 16 9 33 33 306 230 228 217 219 226 205 123 128 180 195 207 207 208 211 215 216 210 208 214 218 216 210
316 304 305 26 13 3 26 13 348 24 59 97 91 20 314 9 39 61 101 112 263 270 172 193 294 46 83 349 357 74 77 34 8 23 38 47 25 0 8 32 347 216 213 212 219 228 212 175 135 148 171 194 201 203 211 217 217 211 209 213 214 213 211
298 291 285 90 63 17 20 330 303 336 55 129 117 132 153 52 32 56 87 97 252 236 182 165 163 135 103 51 12 63 76 50 24 23 35 56 52 35 42 33 358 283 220 207 202 195 185 181 169 149 149 166 180 187 199 211 215 214 212 216 215 211 214
335 322 328 31 42 1 279 222 272 256 211 145 96 78 71 52 8 44 91 137 222 173 166 156 150 135 108 73 25 58 78 66 42 31 32 53 68 70 73 60 30 26 51 138 168 172 174 179 184 176 155 159 175 185 191 198 207 211 211 214 215 214 218
349 335 304 292 304 298 274 325 326 312 8 79 87 81 70 60 354 30 95 157 155 138 151 145 139 129 118 112 63 67 78 72 50 35 31 41 58 66 77 81 59 46 59 64 54 91 203 196 190 183 156 144 165 189 199 189 187 196 203 209 214 219 222
215 223 238 252 259 270 294 337 328 343 27 48 92 101 99 161 126 49 112 151 147 154 156 136 126 123 115 111 83 67 72 73 61 45 40 43 50 49 55 69 60 46 52 57 44 28 358 287 229 218 196 142 137 165 189 193 187 191 197 203 208 212 215
250 242 242 252 262 273 311 341 339 351 7 7 47 95 124 144 114 68 176 147 140 155 152 135 138 129 105 99 90 77 74 74 66 54 48 49 55 56 51 56 58 49 47 45 38 30 21 13 311 245 237 227 180 165 174 187 198 201 202 201 201 204 209
282 276 272 276 277 282 304 318 321 325 327 335 4 51 58 92 112 146 175 132 127 143 135 125 126 113 105 106 102 92 85 79 69 57 49 45 52 60 57 56 62 65 60 48 36 33 28 33 47 49 249 249 239 219 215 230 245 236 221 213 208 207 211
296 300 295 281 272 283 317 299 303 328 341 333 327 25 78 94 115 138 127 107 98 123 125 119 116 112 113 115 109 101 96 92 85 74 66 58 51 51 51 51 55 63 70 66 49 42 44 45 68 96 127 219 229 218 222 235 247 247 236 229 225 223 223
292 287 286 275 243 241 274 270 279 290 249 285 310 33 88 93 105 123 120 110 92 95 118 123 123 117 114 114 109 103 102 101 99 92 85 79 68 58 52 50 51 54 58 61 53 44 47 49 62 108 132 159 180 193 211 225 235 236 234 233 227 229 230
276 272 291 297 251 235 248 247 314 306 236 210 148 86 96 105 123 126 111 112 133 135 124 123 121 115 113 116 116 110 105 102 102 97 89 86 83 75 64 52 50 50 44 44 50 50 48 51 59 83 117 162 180 181 199 217 225 228 233 234 226 217 217
293 304 313 296 259 221 249 160 51 12 345 123 107 96 75 76 99 116 102 114 146 143 130 121 117 118 122 126 124 118 112 107 104 102 93 87 86 84 76 65 54 48 39 36 50 61 60 60 66 78 106 138 151 151 171 199 211 219 225 230 232 227 223
291 312 322 312 294 137 221 247 79 60 51 63 78 92 93 88 92 103 111 121 130 132 131 130 129 130 132 133 131 126 124 119 112 108 103 97 92 88 85 81 72 60 48 43 58 71 74 86 99 105 114 127 134 140 157 180 195 207 213 218 231 237 235
275 312 341 335 327 184 198 177 75 77 79 70 65 72 91 107 112 110 111 117 115 112 116 121 126 128 128 129 129 127 125 122 117 113 109 106 101 93 90 93 91 77 61 60 72 77 74 78 94 103 105 114 126 136 146 160 174 187 199 209 222 236 239
267 330 29 257 265 224 160 104 84 90 92 83 73 55 45 81 110 116 118 119 114 112 117 123 128 129 124 120 123 131 133 130 127 119 111 107 107 100 94 94 96 89 74 68 74 80 76 70 73 81 89 104 117 124 127 128 130 136 145 160 175 186 254
224 185 236 244 280 8 18 24 52 82 99 112 109 86 46 69 109 121 121 119 121 125 129 132 133 131 123 114 124 142 143 140 137 131 125 119 119 118 109 98 94 90 84 76 71 78 83 76 65 62 70 95 107 106 104 102 104 112 116 109 99 87 76
1 28 339 309 309 280 251 243 211 86 102 120 118 106 48 56 113 126 127 126 135 138 138 141 144 142 130 123 156 157 146 137 129 124 126 124 123 127 120 104 97 91 83 75 67 69 83 86 77 71 74 85 90 87 89 96 101 99 95 91 90 89 83
43 47 353 295 283 241 235 237 171 92 102 120 111 101 296 308 122 132 136 137 143 146 147 151 156 154 138 160 173 164 156 143 124 114 114 115 117 117 101 89 100 100 86 76 72 69 77 89 89 83 82 85 86 80 80 89 93 85 79 80 82 82 82
162 152 212 282 286 224 245 258 172 114 116 119 103 103 245 195 126 134 142 146 151 153 154 159 164 165 181 179 169 162 157 150 137 123 115 113 111 105 86 80 99 99 85 80 83 82 80 87 90 87 82 81 81 79 78 81 79 70 66 69 72 73 77
174 180 207 234 237 218 260 331 72 106 108 96 93 187 200 143 126 136 144 147 152 154 155 160 157 130 146 157 156 157 155 149 145 137 127 119 109 100 91 95 102 97 87 85 88 86 80 85 91 90 87 82 78 76 76 75 71 66 62 62 64 66 69
181 192 219 221 292 293 10 52 52 67 94 126 180 161 144 134 134 142 145 146 152 154 152 151 143 131 135 146 152 155 152 145 141 139 139 136 122 113 110 106 106 105 101 100 104 104 90 82 80 79 81 81 78 77 77 73 71 71 70 65 63 63 65
241 224 254 218 204 264 263 69 36 24 79 169 160 142 138 142 145 147 148 149 153 154 149 144 143 140 139 145 149 150 148 147 140 131 130 128 123 121 116 112 120 125 116 117 129 133 94 77 75 72 72 75 76 76 77 77 77 78 78 75 72 70 68
312 245 289 249 226 322 68 94 102 100 130 152 155 147 145 149 149 150 151 151 151 152 149 144 144 143 142 145 146 143 144 145 136 129 132 132 131 132 125 121 130 137 124 125 125 103 80 83 81 73 69 71 72 70 72 77 81 79 75 75 77 76 71
198 154 194 234 236 97 94 107 123 127 134 153 162 154 149 150 152 154 153 152 153 154 150 146 145 146 148 149 147 144 144 143 138 138 143 144 142 137 128 121 118 107 99 95 87 79 79 88 88 82 75 70 66 64 66 73 77 75 72 69 67 67 67
84 109 185 209 174 116 115 118 124 134 145 161 163 150 147 149 154 159 157 159 162 158 151 148 148 150 153 153 153 152 151 148 147 148 150 150 149 143 135 131 129 123 112 101 93 87 81 78 86 93 90 81 71 66 67 74 75 70 68 66 61 57 57
98 145 230 203 161 135 126 121 124 146 158 157 142 140 145 149 155 161 161 164 170 164 156 153 153 154 157 158 158 156 150 144 147 153 152 148 145 140 138 140 141 139 133 124 116 109 99 89 90 98 102 99 92 87 90 96 89 78 72 69 62 56 51
147 193 209 186 160 140 129 124 133 156 150 138 130 130 140 149 152 155 157 163 170 166 159 158 157 157 160 162 159 153 147 144 150 154 150 144 140 137 137 140 143 146 142 136 132 125 116 107 102 100 102 104 105 107 109 107 99 88 83 81 77 73 67
100 147 173 152 121 125 129 133 152 156 135 132 132 129 132 141 147 153 157 161 167 165 161 163 163 159 160 165 161 153 150 152 156 157 154 151 150 148 148 150 149 141 135 134 133 128 120 113 106 99 98 96 96 106 115 111 102 92 84 83 93 97 90
11 210 182 155 130 134 140 144 156 152 137 134 137 137 137 141 148 158 161 160 164 166 165 167 165 159 160 165 161 155 155 158 161 162 160 158 159 161 163 160 149 134 128 128 126 121 116 114 109 104 102 100 97 104 116 120 118 113 99 92 106 113 107
272 224 172 142 115 109 127 133 138 142 141 140 140 146 154 153 154 166 167 161 162 165 167 168 166 161 163 165 159 155 159 165 169 169 167 166 168 171 167 156 145 138 133 128 122 117 111 105 100 97 98 100 99 105 120 130 133 129 106 84 93 103 104
102 164 166 156 133 126 143 146 144 141 142 147 151 156 159 155 156 168 166 160 159 162 165 168 167 164 166 168 165 162 165 171 174 173 170 169 164 159 155 150 145 144 140 132 126 122 115 105 96 88 90 94 89 87 101 119 128 122 98 74 68 65 58
127 154 165 170 160 141 141 147 153 154 150 153 162 163 156 155 164 166 158 155 159 163 165 167 168 169 169 169 168 168 170 172 173 169 166 165 160 156 155 150 144 145 146 140 132 126 122 119 108 93 91 94 82 65 70 87 102 101 89 70 54 42 33